[[{"header":{"parameterUnit":"m.s-1","parameterCategory":1,"la1":30.2991,"la2":30.254,"lo1":-89.0895,"lo2":-89.0444,"dy":0.0017,"dx":0.0017,"nx":28,"ny":28,"refTime":"2024-07-15T03:00:00:Z","depth":0,"parameterNumber":2,"parameterNumberName":"U-component_of_WINDS"},"data":[0,0,0,0,0,0,0,0,0,0,0,0,0,0,0,0,0,0,0,0,0,0,0,0,0,0,0,0,0,0,0,0,0,0,0,0,0,0,0,0,0,0,0,0,0,0,0,0,0,0,0,0,0,0,0,0,0,0,3.292,3.2921,0,3.2977,3.2978,3.2979,3.2876,3.2873,3.287,3.2866,3.2926,3.293,3.2935,0,0,0,0,0,0,0,0,0,0,0,0,0,3.2723,3.2727,3.292,3.2921,3.2921,3.2977,3.2978,3.2979,3.2877,3.2873,3.2869,3.2865,3.2924,3.293,3.2936,0,0,0,0,0,0,0,0,0,0,0,0,0,3.2797,3.2728,3.292,3.2877,3.2874,3.2977,3.2978,3.2979,3.2878,3.2873,3.2868,3.2863,3.2922,3.2929,3.2936,3.3084,0,0,3.2958,3.2961,0,0,0,0,0,0,0,0,3.2793,3.2805,3.2883,3.2881,3.2877,3.2914,3.293,3.3014,3.2879,3.2877,3.2866,3.286,3.2926,3.2933,3.2955,3.3086,3.3089,3.2959,3.2963,3.2966,3.2968,0,0,0,0,0,0,0,3.2788,3.2802,3.2943,3.2884,3.2881,3.2856,3.286,3.2946,3.293,3.2876,3.2869,3.2877,3.2924,3.2948,3.2955,3.309,3.2959,3.2965,3.297,3.2972,3.3343,3.3349,0,0,0,0,0,0,3.2788,3.2798,3.2941,3.2944,3.2822,3.2863,3.2869,3.2908,3.2928,3.2927,3.2882,3.2872,3.2938,3.2947,3.2957,3.3129,3.2966,3.2973,3.2977,3.3338,3.3345,3.3351,0,0,0,0,0,0,3.2784,3.2802,3.2938,3.2869,3.2885,3.2872,3.2917,3.2912,3.2936,3.2932,3.2929,3.291,3.2935,3.2947,3.3052,3.313,3.2976,3.2983,3.3331,3.334,3.3348,3.3476,0,0,0,0,0,0,3.2779,3.2801,3.2857,3.2871,3.2889,3.3033,3.2922,3.2916,3.2948,3.2937,3.2958,3.2956,3.2932,3.3042,3.306,3.3137,3.2988,3.3324,3.3335,3.3345,3.3465,3.3487,3.3507,0,0,0,0,0,3.2773,3.2891,3.286,3.2878,3.2958,3.3038,3.3048,3.3017,3.2955,3.3011,3.3008,3.2955,3.3119,3.3054,3.3073,3.3153,3.3319,3.3332,3.3344,3.3455,3.3483,3.3507,0,0,0,0,0,0,3.2887,3.2892,3.2858,3.2985,3.3012,3.302,3.309,3.3048,3.3093,3.308,3.304,3.3046,3.3159,3.3167,3.3094,3.3296,3.3209,3.3226,3.3287,3.3313,3.3334,3.3329,3.2994,0,0,0,0,0,3.2927,3.2991,3.2992,3.3104,3.3119,3.3103,3.3136,3.311,3.3136,3.3147,3.3152,3.318,3.3237,3.3276,3.3329,3.3466,3.3468,3.3531,3.3552,3.3569,3.3584,3.3655,3.3683,3.3392,3.3392,3.3391,0,0,3.301,3.3021,3.3064,3.3127,3.3145,3.3212,3.3113,3.3188,3.3237,3.3159,3.3258,3.3263,3.3291,3.3413,3.3466,3.3423,3.3665,3.3585,3.3599,3.3604,3.3671,3.3699,3.3723,3.34,3.3399,3.3397,0,0,3.3195,3.3211,3.3304,3.3324,3.3352,3.334,3.3363,3.3378,3.3378,3.3477,3.3419,3.3477,3.3578,3.3599,3.3624,3.3818,3.377,3.3836,3.3946,3.4017,3.404,3.406,3.4127,3.4152,3.3851,3.3851,3.3851,0,3.3295,3.3393,3.3358,3.3437,3.3467,3.3398,3.3493,3.3514,3.3558,3.358,3.353,3.3653,3.3668,3.3793,3.384,3.3863,3.3886,3.3832,3.4039,3.4059,3.4077,3.4141,3.4167,3.3859,3.3858,3.3857,3.3856,0,3.3514,3.3583,3.3656,3.3699,3.3737,3.3823,3.3801,3.3844,3.3815,3.3808,3.391,3.3924,3.3978,3.4006,3.3979,3.4128,3.4099,3.4046,3.3956,3.4113,3.4172,3.4197,3.387,3.3867,3.3865,3.3863,0,0,3.3771,3.3794,3.3821,3.3839,3.3865,3.3918,3.4002,3.4054,3.409,3.4123,3.4192,3.4278,3.4228,3.4256,3.423,3.4292,3.4443,3.423,3.423,3.4268,3.4606,3.4645,3.4674,3.4412,3.4417,3.4421,3.4603,0,3.3954,3.4097,3.4068,3.4208,3.4271,3.4207,3.428,3.4303,3.43,3.4353,3.4348,3.4409,3.434,3.4356,3.4414,3.4412,3.451,3.4399,3.4475,3.4478,3.4468,3.4705,3.4747,3.4918,3.4626,3.463,3.4633,0,3.4186,3.4226,3.4373,3.4387,3.4412,3.4478,3.4523,3.4575,3.46,3.4593,3.4624,3.4587,3.467,3.4581,3.4694,3.4619,3.4648,3.4652,3.4658,3.4662,3.4563,3.4714,3.4972,3.4997,3.4669,3.4666,3.4664,0,3.4357,3.4449,3.4547,3.4565,3.4585,3.4633,3.4643,3.4664,3.4697,3.4737,3.4757,3.4807,3.4834,3.4873,3.485,3.4787,3.4966,3.4876,3.4961,3.4962,3.5001,3.4998,3.5265,3.5023,3.5023,3.5022,3.5022,0,3.4563,3.4654,3.4624,3.4685,3.4786,3.4752,3.4852,3.4855,3.4874,3.4934,3.4883,3.494,3.4907,3.4962,3.4945,3.504,3.5053,3.5049,3.5043,3.5053,3.5053,3.507,3.5057,3.5029,3.5027,3.5026,3.5025,0,3.477,3.4754,3.4857,3.4868,3.4872,3.4946,3.4955,3.5011,3.5004,3.508,3.5096,3.5085,3.5147,3.5128,3.5195,3.5183,3.5304,3.5283,3.5295,3.5289,3.5375,3.5367,3.5661,3.5697,3.5434,3.5436,3.5438,0,3.4902,3.497,3.4988,3.5024,3.5038,3.5098,3.5131,3.5101,3.5137,3.5171,3.5224,3.5281,3.5325,3.5427,3.5424,3.5475,3.5455,3.5554,3.5462,3.5469,3.5454,3.545,3.5456,3.5572,3.5575,3.5578,3.558,0,3.5136,3.5125,3.5174,3.5222,3.5262,3.5298,3.5329,3.5362,3.5334,3.5378,3.544,3.5474,3.5542,3.5599,3.5646,3.5656,3.5614,3.5609,3.5631,3.5641,3.5644,3.5642,3.5343,3.5602,3.56,3.5598,3.5597,3.5596,3.5309,3.5366,3.5387,3.5444,3.5464,3.5494,3.5547,3.5546,3.5598,3.565,3.563,3.5701,3.5724,3.5781,3.5799,3.5854,3.5816,3.5848,3.5856,3.5864,3.5874,3.5637,3.5862,3.5862,3.5861,3.5861,3.586,0,3.5539,3.5549,3.5602,3.5647,3.5692,3.5647,3.5679,3.572,3.5783,3.5808,3.5852,3.5924,3.5979,3.5981,3.6032,3.6076,3.6058,3.6091,3.6086,3.6089,3.5907,3.5881,3.6104,3.6104,3.6104,3.6104,3.6104,3.6104,3.5664,3.5759,3.575,3.5854,3.5863,3.5933,3.5954,3.5982,3.6001,3.6083,3.6128,3.6129,3.6145,3.6197,3.6246,3.6245,3.6265,3.6305,3.6297,3.6126,3.6102,3.6079,3.6055,3.6311,3.6311,3.6475,3.6476,3.6477]},{"header":{"parameterUnit":"m.s-1","parameterCategory":1,"la1":30.2991,"la2":30.254,"lo1":-89.0895,"lo2":-89.0444,"dy":0.0017,"dx":0.0017,"nx":28,"ny":28,"refTime":"2024-07-15T03:00:00:Z","depth":0,"parameterNumber":3,"parameterNumberName":"V-component_of_WINDS"},"data":[0,0,0,0,0,0,0,0,0,0,0,0,0,0,0,0,0,0,0,0,0,0,0,0,0,0,0,0,0,0,0,0,0,0,0,0,0,0,0,0,0,0,0,0,0,0,0,0,0,0,0,0,0,0,0,0,0,0,1.5273,1.5275,0,1.5439,1.5441,1.5443,1.5479,1.5478,1.5476,1.5475,1.5647,1.5653,1.5658,0,0,0,0,0,0,0,0,0,0,0,0,0,1.4985,1.499,1.5273,1.5275,1.5277,1.5439,1.5441,1.5444,1.5479,1.5478,1.5476,1.5475,1.5645,1.5652,1.5659,0,0,0,0,0,0,0,0,0,0,0,0,0,1.5127,1.4992,1.5272,1.5314,1.5319,1.5439,1.5442,1.5444,1.5479,1.5478,1.5476,1.5474,1.5643,1.5651,1.566,1.5749,0,0,1.5686,1.569,0,0,0,0,0,0,0,0,1.5119,1.5137,1.5306,1.5311,1.5318,1.5437,1.5403,1.5547,1.548,1.5419,1.5475,1.5473,1.5578,1.5592,1.5628,1.5757,1.5765,1.5687,1.5692,1.5695,1.5698,0,0,0,0,0,0,0,1.5109,1.513,1.5339,1.5308,1.5315,1.5324,1.5343,1.543,1.5507,1.5424,1.5427,1.5446,1.5581,1.5619,1.5632,1.5767,1.5686,1.5694,1.5699,1.5703,1.5978,1.598,0,0,0,0,0,0,1.5091,1.5122,1.5333,1.5344,1.5211,1.5331,1.5351,1.54,1.5506,1.552,1.5448,1.5447,1.5605,1.5622,1.5638,1.575,1.5695,1.5703,1.5708,1.5976,1.5979,1.5981,0,0,0,0,0,0,1.5085,1.511,1.5327,1.5234,1.5262,1.5338,1.5393,1.5404,1.5442,1.5524,1.5538,1.5472,1.5605,1.5626,1.5721,1.5756,1.5707,1.5715,1.5973,1.5977,1.598,1.5974,0,0,0,0,0,0,1.5077,1.5108,1.5143,1.5234,1.5267,1.5407,1.5395,1.5409,1.5457,1.5458,1.5551,1.5564,1.5605,1.5708,1.573,1.5767,1.5722,1.5971,1.5975,1.5979,1.5971,1.5976,1.5981,0,0,0,0,0,1.5066,1.5135,1.5144,1.5169,1.5312,1.5409,1.5428,1.5473,1.546,1.5495,1.5547,1.5561,1.5749,1.5718,1.5742,1.5783,1.5969,1.5974,1.5979,1.5969,1.5975,1.5981,0,0,0,0,0,0,1.5046,1.5147,1.5159,1.5259,1.5325,1.5415,1.5461,1.5478,1.555,1.5548,1.5601,1.5621,1.5713,1.5758,1.5721,1.5875,1.5858,1.5868,1.5842,1.5849,1.5854,1.5841,1.5729,0,0,0,0,0,1.5053,1.5123,1.5208,1.5288,1.532,1.5385,1.5429,1.5458,1.5528,1.5557,1.5616,1.5684,1.5758,1.5806,1.5879,1.5977,1.5998,1.6017,1.6022,1.6026,1.6034,1.6088,1.6098,1.5997,1.5997,1.5997,0,0,1.5068,1.5132,1.5173,1.5285,1.534,1.5411,1.5408,1.5484,1.5537,1.5568,1.5662,1.5707,1.5787,1.5884,1.5929,1.5923,1.6066,1.6032,1.6034,1.6041,1.6094,1.6104,1.6112,1.6001,1.6,1.5999,0,0,1.5132,1.5188,1.526,1.5314,1.5397,1.5439,1.5456,1.5544,1.5575,1.5669,1.5694,1.5758,1.5885,1.594,1.5985,1.6069,1.6084,1.6091,1.6117,1.6169,1.6177,1.6184,1.6214,1.6224,1.6099,1.6099,1.6099,0,1.5141,1.5249,1.5295,1.537,1.5418,1.5448,1.5522,1.5572,1.5674,1.5707,1.5699,1.5858,1.5914,1.6024,1.6044,1.6079,1.61,1.6081,1.6172,1.618,1.6188,1.6216,1.6227,1.6099,1.6099,1.6099,1.6099,0,1.5256,1.533,1.5379,1.5476,1.5529,1.5603,1.566,1.5709,1.5732,1.5776,1.5871,1.5939,1.6025,1.6054,1.6078,1.6167,1.6161,1.6162,1.6146,1.6197,1.6225,1.6236,1.61,1.61,1.6099,1.6099,0,0,1.5313,1.5433,1.545,1.5494,1.5586,1.5645,1.572,1.5804,1.5845,1.5914,1.5977,1.6083,1.6085,1.6135,1.6166,1.6212,1.6274,1.6208,1.621,1.6217,1.6375,1.6374,1.6386,1.6284,1.6286,1.6288,1.6369,0,1.5388,1.5522,1.5565,1.5676,1.5746,1.5775,1.584,1.5903,1.5945,1.601,1.6057,1.6131,1.6127,1.6158,1.6205,1.6256,1.6306,1.6251,1.6344,1.6347,1.6323,1.6401,1.64,1.6473,1.638,1.6382,1.6383,0,1.5494,1.5564,1.5682,1.5765,1.5795,1.5853,1.5933,1.5995,1.6067,1.6095,1.6151,1.6178,1.6256,1.6236,1.6345,1.6306,1.6347,1.6378,1.6382,1.6392,1.6368,1.6413,1.6497,1.6508,1.6401,1.6399,1.6398,0,1.5523,1.5647,1.5733,1.577,1.5869,1.5909,1.5952,1.6022,1.607,1.614,1.6171,1.625,1.6293,1.6353,1.64,1.6381,1.6505,1.6488,1.653,1.6528,1.6555,1.6553,1.6646,1.6581,1.658,1.658,1.658,0,1.5602,1.5674,1.5747,1.5801,1.5881,1.5929,1.6008,1.6053,1.6115,1.6177,1.6207,1.6265,1.6324,1.639,1.6427,1.6512,1.6531,1.6555,1.6564,1.6553,1.6549,1.658,1.6576,1.6583,1.6582,1.6582,1.6581,0,1.5649,1.5701,1.5797,1.5883,1.5906,1.5961,1.6034,1.6087,1.613,1.6208,1.6229,1.6297,1.6375,1.6428,1.6529,1.6554,1.6646,1.6654,1.6621,1.6626,1.6664,1.6659,1.678,1.6798,1.672,1.6721,1.6722,0,1.5696,1.5751,1.5842,1.5886,1.5929,1.5999,1.6047,1.6097,1.6146,1.6232,1.6275,1.6355,1.6422,1.6546,1.6604,1.6682,1.6692,1.6729,1.6704,1.669,1.6692,1.6688,1.6694,1.6733,1.6733,1.6734,1.6734,0,1.5774,1.5797,1.5866,1.5943,1.6,1.6063,1.6127,1.6161,1.6222,1.6275,1.6356,1.6408,1.651,1.659,1.6672,1.6717,1.6736,1.6742,1.6755,1.6744,1.6723,1.6734,1.6632,1.6739,1.6738,1.6738,1.6738,1.6738,1.5823,1.5873,1.5944,1.602,1.6072,1.6131,1.6184,1.6233,1.6301,1.6388,1.6413,1.6497,1.6567,1.668,1.6726,1.6792,1.6788,1.6808,1.6813,1.6817,1.6817,1.6712,1.6807,1.6807,1.6807,1.6807,1.6807,0,1.5903,1.595,1.6018,1.6106,1.6165,1.6177,1.6247,1.6296,1.6369,1.6433,1.6498,1.659,1.6667,1.6731,1.681,1.6851,1.6862,1.687,1.6868,1.6878,1.6816,1.6796,1.686,1.686,1.686,1.686,1.686,1.686,1.5951,1.6036,1.6067,1.6179,1.6226,1.6308,1.6347,1.6401,1.6452,1.6553,1.6617,1.6658,1.6722,1.6806,1.6877,1.6894,1.6922,1.6928,1.6947,1.6888,1.6882,1.6876,1.6858,1.6934,1.6934,1.7003,1.7004,1.7004]}]]